YAOGAN-31 F

导读

YAOGAN-31 F(遥感三十一号F组卫星)是中国于2021年1月29日8时发射的国产遥感卫星,属于我国“遥感”系列对地观测卫星体系。作为遥感技术的太空应用平台,它搭载先进遥感器,可对地球表层开展大范围、周期性的电磁波探测,获取目标区域的观测数据。这类卫星主要服务于国土勘测、环境监测、灾害评估等领域,能为国民经济建设、科学研究提供可靠的空间信息支撑,是我国对地观测网络的重要组成部分。

基本信息
目录编号:
47536
目录名称:
YAOGAN-31 F
国际标识:
2021-007E
轨道中心:
EARTH
卫星名称:
YAOGAN-31 F
卫星全名:
--
卫星状态:
在轨 (已飞行2054 天)
发射日期:
2021-01-29 UTC
国别 :
中国 (CN)
星等 :
--
该卫星已列入 空间交会检测服务 Space Conjunction Data Service (SCDS) ,当前飞行风险评估等级: 无高风险
轨道信息
数据来源 国际轨道数据 AOE轨道数据
星历时间 2026-09-14T06:28:31+0800
8小时前
查看轨道信息
2026-09-13T00:00:00+0800
1天前
查看轨道信息
半长轴 7467.171km 7467.172km
偏心率 0.018367 0.0183529
轨道倾角 63.401° 63.401°
近地点辐角 0.946° 1.030°
升交点赤经 274.049° 277.311°
平近点角 359.188° 328.664°
近地点 951.884km 951.99km
远地点 1226.184km 1226.08km
周期 107.027分钟 107.027分钟
每日圈数 13.454535 13.45453
详细信息
使用方式:
暂无
2D轨道图
3D轨道图
轨道高度分析图
轨道倾角分析图
轨道综合分析图
查看轨道综合分析图
交会数据列表
事件ID 空间交会对象 最接近时刻(TCA) 交会距离 交会风险概率(CRP) 交会风险指数(CRI) 操作
CDM_260915-094404-753606-910922
2026-09-15T
09:44:51+0000
2.903 km
极远距离
1.193804E-6 低风险 0.37
与全量物体交会距离演化趋势 订阅飞行安全评估服务
与全量物体交会风险概率演化趋势 订阅飞行安全评估服务